| time (UTC) | temp F | wind direction | speed MPH | gust MPH | rain 1hr in | rain 24hr in | rain mn in | humidity % | barometer mb |
| 20260831011530 | 69 | 263 | 0.0 | 4.0 | 0.00 | 0.00 | 0.00 | 48 | 1019.3 |
| 20260831010144 | 70 | 263 | 0.0 | 5.0 | 0.00 | 0.00 | 0.00 | 47 | 1019.4 |
| 20260831004530 | 70 | 266 | 0.0 | 5.0 | 0.00 | 0.00 | 0.00 | 45 | 1019.4 |
| 20260831003029 | 71 | 261 | 0.0 | 6.0 | 0.00 | 0.00 | 0.00 | 44 | 1019.4 |
| 20260831001529 | 72 | 274 | 0.0 | 5.0 | 0.00 | 0.00 | 0.00 | 42 | 1019.4 |
| 20260831000032 | 73 | 268 | 0.0 | 6.0 | 0.00 | 0.00 | 0.00 | 42 | 1019.5 |
| 20260830234531 | 74 | 267 | 0.0 | 5.0 | 0.00 | 0.00 | 0.00 | 42 | 1019.6 |
| 20260830233030 | 73 | 267 | 0.0 | 4.0 | 0.00 | 0.00 | 0.00 | 43 | 1019.7 |
| 20260830231646 | 73 | 259 | 1.0 | 6.0 | 0.00 | 0.00 | 0.00 | 42 | 1019.9 |
| 20260830230030 | 72 | 269 | 0.0 | 7.0 | 0.00 | 0.00 | 0.00 | 43 | 1020.0 |
| 20260830224532 | 72 | 274 | 0.0 | 6.0 | 0.00 | 0.00 | 0.00 | 44 | 1020.2 |
| 20260830223030 | 72 | 278 | 1.0 | 6.0 | 0.00 | 0.00 | 0.00 | 45 | 1020.4 |
| 20260830221605 | 72 | 264 | 0.0 | 4.0 | 0.00 | 0.00 | 0.00 | 46 | 1020.7 |
| 20260830220147 | 71 | 267 | 0.0 | 5.0 | 0.00 | 0.00 | 0.00 | 48 | 1020.8 |
| 20260830214530 | 70 | 266 | 0.0 | 5.0 | 0.00 | 0.00 | 0.00 | 49 | 1021.1 |
| 20260830213029 | 69 | 274 | 0.0 | 6.0 | 0.00 | 0.00 | 0.00 | 50 | 1021.2 |
| 20260830211532 | 69 | 278 | 0.0 | 6.0 | 0.00 | 0.00 | 0.00 | 49 | 1021.3 |
| 20260830210106 | 69 | 280 | 0.0 | 7.0 | 0.00 | 0.00 | 0.00 | 49 | 1021.4 |
| 20260830204532 | 69 | 277 | 0.0 | 9.0 | 0.00 | 0.00 | 0.00 | 50 | 1021.6 |
| 20260830203030 | 69 | 273 | 1.0 | 7.0 | 0.00 | 0.00 | 0.00 | 51 | 1022.0 |
| 20260830201530 | 69 | 263 | 0.0 | 5.0 | 0.00 | 0.00 | 0.00 | 52 | 1022.1 |
| 20260830194529 | 68 | 258 | 1.0 | 8.0 | 0.00 | 0.00 | 0.00 | 52 | 1022.4 |
| 20260830193031 | 68 | 260 | 1.0 | 7.0 | 0.00 | 0.00 | 0.00 | 52 | 1022.5 |
| 20260830191529 | 67 | 264 | 1.0 | 6.0 | 0.00 | 0.00 | 0.00 | 55 | 1022.7 |
| 20260830190112 | 66 | 263 | 0.0 | 4.0 | 0.00 | 0.00 | 0.00 | 55 | 1022.8 |
| 20260830184603 | 67 | 269 | 0.0 | 5.0 | 0.00 | 0.00 | 0.00 | 55 | 1023.0 |
| 20260830183031 | 66 | 265 | 0.0 | 6.0 | 0.00 | 0.00 | 0.00 | 57 | 1023.1 |
| 20260830181528 | 65 | 259 | 1.0 | 7.0 | 0.00 | 0.00 | 0.00 | 59 | 1023.2 |
| 20260830180029 | 63 | 262 | 1.0 | 7.0 | 0.00 | 0.00 | 0.00 | 59 | 1023.2 |
| 20260830174529 | 63 | 267 | 1.0 | 7.0 | 0.00 | 0.00 | 0.00 | 61 | 1023.2 |
| 20260830173132 | 62 | 271 | 0.0 | 4.0 | 0.00 | 0.00 | 0.00 | 64 | 1023.3 |
| 20260830171530 | 62 | 272 | 0.0 | 6.0 | 0.00 | 0.00 | 0.00 | 64 | 1023.3 |
| 20260830170029 | 61 | 265 | 0.0 | 4.0 | 0.00 | 0.00 | 0.00 | 67 | 1023.4 |
| 20260830164605 | 61 | 252 | 1.0 | 6.0 | 0.00 | 0.00 | 0.00 | 69 | 1023.7 |
| 20260830163031 | 60 | 258 | 0.0 | 6.0 | 0.00 | 0.00 | 0.00 | 70 | 1023.7 |
| 20260830161529 | 59 | 261 | 0.0 | 5.0 | 0.00 | 0.00 | 0.00 | 73 | 1023.8 |
| 20260830160031 | 58 | 265 | 0.0 | 4.0 | 0.00 | 0.00 | 0.00 | 75 | 1024.1 |
| 20260830154533 | 57 | 263 | 0.0 | 5.0 | 0.00 | 0.00 | 0.00 | 78 | 1024.2 |
| 20260830153032 | 56 | 258 | 1.0 | 4.0 | 0.00 | 0.00 | 0.00 | 80 | 1024.2 |
| 20260830151533 | 54 | 261 | 0.0 | 5.0 | 0.00 | 0.00 | 0.00 | 82 | 1024.3 |
| 20260830150028 | 54 | 273 | 0.0 | 4.0 | 0.00 | 0.00 | 0.00 | 83 | 1024.3 |
| 20260830144528 | 54 | 268 | 0.0 | 4.0 | 0.00 | 0.00 | 0.00 | 83 | 1024.3 |
| 20260830143031 | 53 | 266 | 0.0 | 6.0 | 0.00 | 0.00 | 0.00 | 84 | 1024.3 |
| 20260830140031 | 51 | 258 | 0.0 | 3.0 | 0.00 | 0.00 | 0.00 | 87 | 1024.0 |
| 20260830134604 | 51 | 255 | 0.0 | 2.0 | 0.00 | 0.00 | 0.00 | 87 | 1023.9 |
| 20260830133105 | 51 | 266 | 0.0 | 1.0 | 0.00 | 0.00 | 0.00 | 87 | 1023.8 |
| 20260830131604 | 51 | 279 | 0.0 | 5.0 | 0.00 | 0.00 | 0.00 | 88 | 1023.7 |
| 20260830130029 | 51 | 254 | 0.0 | 3.0 | 0.00 | 0.00 | 0.00 | 89 | 1023.5 |
| 20260830124534 | 49 | 257 | 0.0 | 4.0 | 0.00 | 0.00 | 0.00 | 91 | 1023.5 |
| 20260830123030 | 49 | 269 | 0.0 | 2.0 | 0.00 | 0.00 | 0.00 | 90 | 1023.5 |
| 20260830121530 | 49 | 270 | 0.0 | 1.0 | 0.00 | 0.00 | 0.00 | 90 | 1023.5 |
| 20260830120030 | 49 | 254 | 0.0 | 2.0 | 0.00 | 0.00 | 0.00 | 90 | 1023.6 |
| 20260830114530 | 50 | 247 | 0.0 | 3.0 | 0.00 | 0.00 | 0.00 | 90 | 1023.4 |
| 20260830113031 | 49 | 247 | 0.0 | 4.0 | 0.00 | 0.00 | 0.00 | 89 | 1023.5 |
| 20260830111606 | 49 | 247 | 0.0 | 2.0 | 0.00 | 0.00 | 0.00 | 89 | 1023.5 |
| 20260830110032 | 49 | 247 | 0.0 | 2.0 | 0.00 | 0.00 | 0.00 | 88 | 1023.4 |
| 20260830104531 | 49 | 247 | 0.0 | 4.0 | 0.00 | 0.00 | 0.00 | 87 | 1023.5 |
| 20260830101531 | 51 | 247 | 0.0 | 1.0 | 0.00 | 0.00 | 0.00 | 86 | 1023.4 |
| 20260830100031 | 51 | 247 | 0.0 | 1.0 | 0.00 | 0.00 | 0.00 | 86 | 1023.4 |
| 20260830093102 | 51 | 255 | 0.0 | 3.0 | 0.00 | 0.00 | 0.00 | 84 | 1023.4 |
| 20260830091603 | 51 | 250 | 0.0 | 3.0 | 0.00 | 0.00 | 0.00 | 84 | 1023.4 |
| 20260830090034 | 52 | 243 | 0.0 | 3.0 | 0.00 | 0.00 | 0.00 | 82 | 1023.3 |
| 20260830084531 | 52 | 247 | 0.0 | 2.0 | 0.00 | 0.00 | 0.00 | 81 | 1023.3 |
| 20260830083031 | 53 | 269 | 0.0 | 3.0 | 0.00 | 0.00 | 0.00 | 80 | 1023.5 |
| 20260830081530 | 53 | 265 | 0.0 | 3.0 | 0.00 | 0.00 | 0.00 | 80 | 1023.5 |
| 20260830080031 | 53 | 270 | 0.0 | 3.0 | 0.00 | 0.00 | 0.00 | 80 | 1023.5 |
| 20260830073146 | 53 | 266 | 0.0 | 2.0 | 0.00 | 0.00 | 0.00 | 79 | 1023.6 |
| 20260830070030 | 53 | 270 | 0.0 | 3.0 | 0.00 | 0.00 | 0.00 | 77 | 1023.6 |
| 20260830064531 | 54 | 266 | 0.0 | 3.0 | 0.00 | 0.00 | 0.00 | 76 | 1023.6 |
| 20260830063031 | 55 | 248 | 0.0 | 2.0 | 0.00 | 0.00 | 0.00 | 76 | 1023.6 |
| 20260830061530 | 54 | 277 | 0.0 | 3.0 | 0.00 | 0.00 | 0.00 | 78 | 1023.6 |
| 20260830060030 | 53 | 264 | 0.0 | 2.0 | 0.00 | 0.00 | 0.00 | 78 | 1023.6 |
| 20260830054532 | 54 | 247 | 0.0 | 1.0 | 0.00 | 0.00 | 0.00 | 75 | 1023.5 |
| 20260830053030 | 56 | 247 | 0.0 | 1.0 | 0.00 | 0.00 | 0.00 | 71 | 1023.5 |
| 20260830051607 | 57 | 247 | 0.0 | 2.0 | 0.00 | 0.00 | 0.00 | 68 | 1023.4 |
| 20260830050106 | 58 | 248 | 0.0 | 3.0 | 0.00 | 0.00 | 0.00 | 68 | 1023.4 |
| 20260830044530 | 58 | 240 | 0.0 | 4.0 | 0.00 | 0.00 | 0.00 | 68 | 1023.3 |
| 20260830043103 | 58 | 247 | 0.0 | 3.0 | 0.00 | 0.00 | 0.00 | 67 | 1023.1 |
| 20260830033104 | 59 | 239 | 0.0 | 3.0 | 0.00 | 0.00 | 0.00 | 67 | 1022.5 |
| 20260830024531 | 59 | 246 | 0.0 | 2.0 | 0.00 | 0.00 | 0.00 | 68 | 1022.3 |
| 20260830023029 | 60 | 243 | 0.0 | 3.0 | 0.00 | 0.00 | 0.00 | 66 | 1022.3 |
| 20260830021531 | 61 | 243 | 0.0 | 3.0 | 0.00 | 0.00 | 0.00 | 64 | 1022.5 |
| 20260830020030 | 61 | 254 | 0.0 | 4.0 | 0.00 | 0.00 | 0.00 | 63 | 1022.5 |
| 20260830014533 | 62 | 245 | 1.0 | 5.0 | 0.00 | 0.00 | 0.00 | 63 | 1022.4 |
| 20260830013031 | 62 | 252 | 0.0 | 4.0 | 0.00 | 0.00 | 0.00 | 63 | 1022.3 |